GLO1851 SBCT-SBRJ

Flight info

Callsign GLO1851
Flight time N/A
Altitude 35000
Route EDVE1A EDVEB UM548 KOXAG UM400 KOLBI DCT
Aircraft B737/M-SDFGIKRWXY/EB1D1

Departure

Time 2026-04-28 02:54
Airport Curitiba-Afonso Pena International Airport (SBCT)

Arrival

Time N/A
Airport Santos Dumont Airport (SBRJ)
Time Latitude Longitude Altitude Speed Heading
2026-04-28 02:45 -25.53690 -49.17085 2995 ft 0 kts 225°
2026-04-28 02:45 -25.53692 -49.17088 2995 ft 1 kts 236°
2026-04-28 02:45 -25.53687 -49.17096 2995 ft 1 kts 317°
2026-04-28 02:46 -25.53663 -49.17093 2995 ft 7 kts
2026-04-28 02:46 -25.53599 -49.17092 2995 ft 10 kts 347°
2026-04-28 02:46 -25.53543 -49.17140 2995 ft 10 kts 315°
2026-04-28 02:46 -25.53482 -49.17140 2995 ft 10 kts 43°
2026-04-28 02:47 -25.53423 -49.17156 2995 ft 10 kts 313°
2026-04-28 02:47 -25.53368 -49.17219 2995 ft 12 kts 314°
2026-04-28 02:47 -25.53307 -49.17288 2995 ft 13 kts 314°
2026-04-28 02:47 -25.53242 -49.17362 2995 ft 14 kts 314°
2026-04-28 02:48 -25.53174 -49.17440 2995 ft 15 kts 314°
2026-04-28 02:48 -25.53100 -49.17520 2995 ft 15 kts 315°
2026-04-28 02:48 -25.53029 -49.17599 2995 ft 14 kts 315°
2026-04-28 02:48 -25.52981 -49.17689 2994 ft 15 kts 274°
2026-04-28 02:49 -25.52978 -49.17811 2994 ft 17 kts 271°
2026-04-28 02:49 -25.52925 -49.17924 2994 ft 17 kts 316°
2026-04-28 02:49 -25.52819 -49.17996 2992 ft 19 kts 356°
2026-04-28 02:49 -25.52691 -49.18000 2994 ft 18 kts 358°
2026-04-28 02:50 -25.52566 -49.18003 2995 ft 18 kts 358°
2026-04-28 02:50 -25.52451 -49.18029 2995 ft 17 kts 323°
2026-04-28 02:50 -25.52370 -49.18115 2995 ft 16 kts 315°
2026-04-28 02:50 -25.52291 -49.18201 2996 ft 16 kts 323°
2026-04-28 02:51 -25.52213 -49.18238 2996 ft 12 kts 312°
2026-04-28 02:51 -25.52241 -49.18264 2995 ft 8 kts 132°
2026-04-28 02:51 -25.52264 -49.18234 2996 ft 0 kts 134°
2026-04-28 02:53 -25.52265 -49.18233 2996 ft 5 kts 134°
2026-04-28 02:53 -25.52500 -49.17967 2995 ft 91 kts 135°
2026-04-28 02:53 -25.53124 -49.17264 2999 ft 162 kts 133°
2026-04-28 02:53 -25.53993 -49.16257 3582 ft 184 kts 134°
2026-04-28 02:54 -25.54845 -49.15203 4592 ft 188 kts 118°
2026-04-28 02:54 -25.55125 -49.13748 5194 ft 205 kts 85°
2026-04-28 02:54 -25.54946 -49.12101 5660 ft 228 kts 83°
2026-04-28 02:54 -25.54776 -49.10226 5953 ft 263 kts 84°
2026-04-28 02:55 -25.54618 -49.08167 6754 ft 273 kts 85°
2026-04-28 02:55 -25.54468 -49.06045 7688 ft 281 kts 84°
2026-04-28 02:55 -25.54323 -49.03848 8515 ft 291 kts 84°
2026-04-28 02:55 -25.54176 -49.01586 9356 ft 301 kts 83°
2026-04-28 02:56 -25.54031 -48.99283 10174 ft 310 kts 83°
2026-04-28 02:56 -25.53876 -48.96826 10665 ft 331 kts 83°
2026-04-28 02:56 -25.53711 -48.94216 10983 ft 355 kts 84°
2026-04-28 02:56 -25.53708 -48.94170 10993 ft 355 kts 84°
2026-04-28 02:57 -25.53600 -48.92587 11364 ft 361 kts 81°
2026-04-28 02:57 -25.53544 -48.92080 11494 ft 361 kts 79°
2026-04-28 02:57 -25.53102 -48.89585 12259 ft 365 kts 74°
2026-04-28 02:57 -25.52479 -48.86841 13045 ft 372 kts 72°
2026-04-28 02:58 -25.51809 -48.84041 13789 ft 379 kts 72°
2026-04-28 02:58 -25.51133 -48.81192 14461 ft 386 kts 72°
2026-04-28 02:58 -25.50462 -48.78289 15168 ft 392 kts 72°
2026-04-28 02:58 -25.49798 -48.75347 15934 ft 396 kts 72°
2026-04-28 02:59 -25.49137 -48.72373 16675 ft 401 kts 72°
2026-04-28 02:59 -25.48469 -48.69347 17374 ft 407 kts 72°
2026-04-28 02:59 -25.47797 -48.66294 18067 ft 412 kts 71°
2026-04-28 02:59 -25.47111 -48.63181 18638 ft 419 kts 71°
2026-04-28 03:00 -25.46416 -48.60026 19186 ft 425 kts 71°
2026-04-28 03:00 -25.45714 -48.56840 19830 ft 427 kts 71°
2026-04-28 03:00 -25.45005 -48.53631 20454 ft 431 kts 71°
2026-04-28 03:00 -25.44279 -48.50356 21062 ft 435 kts 71°
2026-04-28 03:01 -25.43575 -48.47199 21609 ft 439 kts 71°
2026-04-28 03:01 -25.42831 -48.43865 22200 ft 443 kts 71°
2026-04-28 03:01 -25.42090 -48.40545 22827 ft 446 kts 71°
2026-04-28 03:01 -25.41343 -48.37201 23392 ft 450 kts 71°
2026-04-28 03:02 -25.40590 -48.33829 23873 ft 454 kts 71°
2026-04-28 03:02 -25.39830 -48.30427 24309 ft 458 kts 71°
2026-04-28 03:02 -25.39064 -48.26999 24766 ft 461 kts 71°
2026-04-28 03:02 -25.38291 -48.23551 25243 ft 464 kts 71°
2026-04-28 03:03 -25.37512 -48.20076 25712 ft 466 kts 71°
2026-04-28 03:03 -25.36729 -48.16585 26178 ft 469 kts 71°
2026-04-28 03:03 -25.35939 -48.13071 26616 ft 473 kts 71°
2026-04-28 03:03 -25.35141 -48.09526 27051 ft 476 kts 71°
2026-04-28 03:04 -25.34340 -48.05970 27477 ft 479 kts 71°